Flag for France Weather past 2 weeks in Toulouse, France

Now
70 °F

Clear.


Feels Like: 70 °F
Forecast: 43 / 63 °F
Wind: 14 mph from Northwest

Location: Toulouse / Blagnac


UV Index: 5 (Moderate)

Visibility: N/A


Pressure: 29.89 "Hg

Humidity: 40%

Dew point: 45 °F

Location of ToulouseLocation

Historic Weather in Toulouse

°F

Toulouse temperature yesterday

Maximum temperature yesterday: 75 °F (at 5:30 PM)
Minimum temperature yesterday: 46 °F (at 7:00 AM)
Average temperature yesterday: 61 °F

Past Weeks' High & Low Weather Summary

 TemperatureHumidityPressure
High79 °F (Apr 7, 5:00 PM)100% (Apr 3, 7:00 PM)30.33 "Hg (Apr 3, 7:00 PM)
Low39 °F (Apr 5, 6:30 AM)14% (Apr 16, 7:00 PM)29.50 "Hg (Apr 3, 4:00 PM)
Average59 °F68%30.07 "Hg
* Reported Apr 3 4:00 PM — Apr 18 4:30 PM, Toulouse, Weather by CustomWeather, © 2014

Note: Actual official high and low records may vary slightly from our data, if they occured in-between our weather recording intervals... More about our weather records

Advertising

Historic Weather Conditions — Data for Previous 24 hours

 ConditionsComfort  
Time TempWeatherWind HumidityBarometerVisibility
4:30 PM
Apr 18
70 °FClear.14 mph40%29.92 "HgN/A
4:00 PM68 °FOvercast.13 mph40%29.92 "HgN/A
3:30 PM68 °FClear.13 mph38%29.92 "HgN/A
3:00 PM66 °FClear.12 mph43%29.95 "HgN/A
2:30 PM66 °FClear.12 mph49%29.95 "HgN/A
2:00 PM64 °FClear.8 mph49%29.98 "HgN/A
1:30 PM64 °FClear.8 mph52%29.98 "HgN/A
1:00 PM63 °FClear.6 mph59%29.98 "HgN/A
12:30 PM63 °FClear.6 mph59%30.01 "HgN/A
12:00 PM61 °FPartly sunny.5 mph63%30.01 "HgN/A
11:30 AM59 °FClear.5 mph63%30.01 "HgN/A
11:00 AM57 °FClear.7 mph67%30.04 "HgN/A
10:30 AM55 °FBroken clouds.7 mph72%30.04 "HgN/A
10:00 AM54 °FPassing clouds.6 mph77%30.04 "HgN/A
9:30 AM52 °FPartly sunny.7 mph82%30.04 "HgN/A
9:00 AM50 °FPartly sunny.9 mph88%30.04 "HgN/A
8:30 AM48 °FLow clouds.8 mph94%30.04 "HgN/A
8:00 AM48 °FLow clouds.8 mph94%30.04 "HgN/A
7:30 AM48 °FPassing clouds.7 mph87%30.04 "HgN/A
7:00 AM48 °FPassing clouds.8 mph87%30.04 "HgN/A
6:30 AM48 °FClear.7 mph87%30.01 "HgN/A
6:00 AM48 °FClear.7 mph87%30.04 "HgN/A
5:30 AM48 °FClear.6 mph87%30.04 "HgN/A
5:00 AM50 °FClear.8 mph82%30.04 "HgN/A
4:30 AM52 °FClear.8 mph77%30.04 "HgN/A
4:00 AM54 °FClear.16 mph72%30.04 "HgN/A
3:30 AM54 °FClear.16 mph72%30.04 "HgN/A
3:00 AM54 °FClear.15 mph72%30.04 "HgN/A
2:30 AM55 °FClear.15 mph67%30.04 "HgN/A
2:00 AM55 °FClear.15 mph67%30.04 "HgN/A
1:30 AM57 °FClear.15 mph59%30.04 "HgN/A
1:00 AM57 °FClear.15 mph59%30.04 "HgN/A
12:30 AM59 °FClear.15 mph55%30.07 "HgN/A
12:00 AM61 °FClear.17 mph52%30.07 "HgN/A
11:30 PM
Apr 17
61 °FClear.15 mph48%30.07 "HgN/A
11:00 PM63 °FClear.15 mph45%30.07 "HgN/A
10:30 PM63 °FClear.15 mph49%30.07 "HgN/A
10:00 PM64 °FClear.12 mph46%30.04 "HgN/A
9:30 PM66 °FClear.13 mph46%30.04 "HgN/A
9:00 PM68 °FClear.14 mph46%30.04 "HgN/A
8:30 PM70 °FClear.14 mph43%30.04 "HgN/A
8:00 PM72 °FClear.13 mph38%30.01 "HgN/A
7:00 PM73 °FPassing clouds.13 mph31%30.01 "HgN/A
6:30 PM73 °FClear.14 mph31%30.04 "HgN/A
6:00 PM73 °FClear.15 mph31%30.04 "HgN/A
5:30 PM75 °FClear.14 mph31%30.04 "HgN/A
5:00 PM73 °FClear.15 mph33%30.04 "HgN/A
Weather by CustomWeather, © 2014

See weather overview